Home > Time Zones > World Clock > Weather > Iran > Yazd > Past weeks

Flag for Iran Weather past 2 weeks in Yazd, Iran

Now
50 °F

Fog.


Feels Like: 48 °F
Forecast: 35 / 57 °F
Wind: 5 mph from Southeast

Location: Yazd Airport

Current Time: Dec 22, 2014 at 2:15:43 PM

Latest Report: Dec 22, 2014 at 1:30 PM


Visibility: 3 mi

Pressure: 30.04 "Hg

Humidity: 82%

Dew point: 45 °F

Location of YazdLocation

Historic Weather in Yazd — Graph

°F

Yazd temperature yesterday

Maximum temperature yesterday: 54 °F (at 12:30 PM)
Minimum temperature yesterday: 41 °F (at 6:30 AM)
Average temperature yesterday: 44 °F

Past Weeks' High & Low Weather Summary

 TemperatureHumidityPressure
High66 °F (Dec 14, 2:30 PM)100% (Dec 17, 3:30 PM)30.51 "Hg (Dec 17, 3:30 PM)
Low34 °F (Dec 8, 5:30 AM)13% (Dec 14, 2:30 PM)29.98 "Hg (Dec 21, 12:30 PM)
Average47 °F47%30.28 "Hg
* Reported Dec 7 12:30 PM — Dec 22 12:30 PM, Yazd, Weather by CustomWeather, © 2014

Note: Actual official high and low records may vary slightly from our data, if they occured in-between our weather recording intervals... More about our weather records

Advertising

Yazd weather history for previous 24 hours

 ConditionsComfort  
Time TempWeatherWind HumidityBarometerVisibility
12:30 PM
Dec 22
48 °FFog.5 mph82%30.07 "Hg2 mi
11:30 AM45 °FFog.2 mph87%30.09 "Hg2 mi
10:30 AM43 °FFog.No wind87%30.12 "Hg2 mi
9:30 AM41 °FFog.No wind93%30.12 "Hg1 mi
8:30 AM39 °FFog.2 mph100%30.12 "Hg0 mi
8:00 AM39 °FFog.2 mph100%30.09 "Hg0 mi
7:00 AM39 °FFog.5 mph100%30.09 "Hg0 mi
6:30 AM39 °FFog.5 mph100%30.09 "Hg0 mi
6:00 AM37 °FFog.5 mph100%30.07 "Hg0 mi
5:30 AM37 °FFog.5 mph100%30.07 "Hg1 mi
4:30 AM43 °FPassing clouds.2 mph93%30.07 "Hg4 mi
3:30 AM43 °FPassing clouds.5 mph93%30.04 "Hg4 mi
12:30 AM45 °FMostly cloudy.2 mph87%30.07 "HgN/A
11:30 PM
Dec 21
45 °FMostly cloudy.7 mph93%30.07 "HgN/A
11:00 PM43 °FMostly cloudy.9 mph100%30.09 "Hg4 mi
10:30 PM43 °FLight rain. Mostly cloudy.9 mph100%30.09 "Hg4 mi
10:00 PM43 °FLight rain. Mostly cloudy.7 mph100%30.09 "Hg3 mi
9:30 PM43 °FLight rain. Mostly cloudy.9 mph100%30.09 "Hg3 mi
9:00 PM43 °FLight rain. Mostly cloudy.14 mph93%30.12 "Hg3 mi
8:30 PM43 °FLight rain. Mostly cloudy.16 mph87%30.09 "Hg4 mi
8:00 PM43 °FPartly cloudy.16 mph100%30.09 "Hg4 mi
7:30 PM45 °FPartly cloudy.16 mph81%30.07 "Hg4 mi
7:00 PM45 °FPartly cloudy.16 mph81%30.07 "Hg4 mi
6:30 PM46 °FLight rain. Partly cloudy.12 mph71%30.04 "Hg4 mi
6:00 PM48 °FPartly cloudy.12 mph58%30.04 "Hg4 mi
5:30 PM48 °FPassing clouds.7 mph54%30.01 "Hg4 mi
4:30 PM50 °FScattered clouds.7 mph50%29.98 "Hg4 mi
3:30 PM48 °FScattered clouds.7 mph58%29.98 "Hg4 mi
2:30 PM48 °FLight rain. More clouds than sun.9 mph62%29.98 "Hg4 mi
Weather by CustomWeather, © 2014

See weather overviewHow to use our weather pages